Location: Syracuse
(43.0480°N, 76.1480°W)
Time: 20:20:17
(UTC-04:00)

Daily predictions for brighter satellites

Satellite Brightness Start Highest point End
(mag) Time Altitude Azimuth Time Altitude Azimuth Time Altitude Azimuth
Cosmos 2074 Rocket 4.1 20:57:37 10° S 21:03:45 58° E 21:09:53 10° NNE
SL-27 R/B 3.5 21:01:54 10° N 21:05:15 32° ENE 21:08:31 10° SE
Meteor 2-3 Rocket 3.8 20:59:39 10° S 21:05:17 87° E 21:10:55 10° N
Cosmos 1825 4.2 21:04:12 10° ESE 21:05:51 12° E 21:07:30 10° ENE
Cosmos 2082 Rocket 4.4 21:05:58 10° NNE 21:07:51 12° NE 21:09:45 10° ENE
H-2A R/B 2.5 21:05:17 10° SE 21:09:25 46° ENE 21:13:30 10° N
Meteor 1-27 Rocket 4.5 21:07:59 10° N 21:13:05 35° ENE 21:18:05 10° SE
NOSS 2-2 (C) 3.7 21:10:18 10° SSW 21:14:15 51° ESE 21:18:50 10° NE
Cosmos 2263 Rocket 3.4 21:11:30 10° SW 21:16:58 49° WNW 21:22:28 10° NNE
Cosmos 1340 Rocket 3.2 21:14:02 10° SSW 21:18:00 69° WNW 21:22:02 10° N
YAOGAN 6 4.0 21:17:31 10° ESE 21:20:19 23° ENE 21:23:08 10° NNE
Cosmos 1408 4.3 21:18:11 10° SE 21:20:39 17° E 21:23:07 10° NE
NOSS 8 (A) 4.5 21:17:38 10° SSW 21:21:06 65° ESE 21:24:48 10° NE
Cosmos 1624 Rocket 4.0 21:17:26 10° S 21:22:39 70° ESE 21:27:57 10° NNE
Envisat 3.1 21:18:01 10° SSE 21:23:03 68° ENE 21:28:07 10° N
Cosmos 1782 3.0 21:20:02 10° N 21:24:01 56° E 21:27:58 10° SSE
BREEZE-M DEB (TANK) 3.0 21:22:24 10° W 21:24:14 32° SSW 21:26:55 11° SE
Atlas Centaur 2 3.2 21:24:00 10° SSW 21:25:14 11° S 21:26:27 10° SSE
Cosmos 1939 Rocket 2.7 21:21:37 10° SSE 21:25:28 81° ENE 21:29:23 10° N
H-2A R/B 3.9 21:25:41 10° E 21:28:59 17° ENE 21:32:16 10° NNE
Cosmos 1238 Rocket 3.8 21:26:59 10° NNE 21:29:29 21° ENE 21:31:27 14° ESE
Sich 1 Rocket 3.9 21:28:27 10° S 21:32:53 52° E 21:37:21 10° NNE
NOSS 2-2 (E) 3.6 21:29:02 10° SSW 21:33:11 86° SE 21:38:09 10° NE
Meteor 2-10 Rocket 4.1 21:27:32 10° NNW 21:33:21 71° W 21:39:01 10° S
Cosmos 1461 4.4 21:29:24 10° SW 21:33:54 46° NW 21:38:18 10° NNE
SPOT 5 3.2 21:29:05 10° SSE 21:34:14 63° ENE 21:39:32 10° N
ALOS 4.4 21:31:09 10° SSW 21:34:58 25° W 21:38:50 10° NW
ERBS 2.6 21:32:13 10° NW 21:35:40 63° SW 21:38:24 15° SSE
PSLV R/B 3.7 21:34:51 16° SE 21:36:56 39° ENE 21:39:44 10° N
Cosmos 1674 Rocket 3.6 21:32:35 10° N 21:37:04 82° E 21:41:31 10° S
Cosmos 1606 3.1 21:34:26 10° N 21:38:15 47° ENE 21:41:21 15° SSE
Cosmos 407 Rocket 3.6 21:35:10 10° NNW 21:40:25 69° ENE 21:45:03 14° SSE
SPOT 1/Viking Rocket 4.1 21:39:32 14° SE 21:43:40 43° ENE 21:48:36 10° N
Terra 3.7 21:42:24 11° E 21:45:11 17° ENE 21:48:11 10° NNE
Cosmos 1892 3.9 21:42:40 10° SSW 21:46:20 44° WNW 21:50:03 10° N
Cosmos 1452 Rocket 3.8 21:41:36 10° S 21:46:35 44° ESE 21:51:34 10° NNE
ERS-1 Rocket 3.9 21:44:23 10° S 21:49:13 46° W 21:54:06 10° NNW
Cosmos 1782 Rocket 4.2 21:47:17 15° SSE 21:50:26 36° E 21:54:33 10° NNE
Cosmos 1190 Rocket 4.1 21:46:49 10° NNW 21:52:02 77° WSW 21:56:41 13° SSE
Cosmos 1140 Rocket 4.3 21:49:58 10° N 21:54:43 36° ENE 21:57:55 18° ESE
PSLV R/B 4.3 21:54:10 10° W 21:57:19 33° SSW 21:58:46 23° SSE
Coronas F rocket 4.3 22:00:36 10° WSW 22:02:30 17° WNW 22:04:24 10° NNW
Okean 3 3.6 21:59:30 10° N 22:03:46 59° E 22:06:18 23° SSE
Cosmos 1975 Rocket 3.3 22:01:09 10° N 22:05:24 51° E 22:07:44 24° SE
USA 234 3.7 21:59:30 10° ENE 22:05:26 36° SE 22:11:21 10° SSW
Cosmos 2154 Rocket 4.0 22:01:12 10° S 22:07:26 88° E 22:13:40 10° N
Intercosmos 25 3.7 22:07:21 26° SE 22:08:43 36° E 22:11:43 10° NNE
CZ-4B R/B 3.5 22:05:12 10° NNE 22:10:08 59° E 22:13:59 16° S
BREEZE-M DEB (TANK) 3.9 22:08:15 10° W 22:11:01 52° NNW 22:18:09 10° ENE
MetOp-B 4.3 22:07:40 14° S 22:12:14 75° WSW 22:17:37 10° NNW
SL-8 R/B 3.9 22:08:41 10° WSW 22:13:30 76° NNW 22:18:20 10° ENE
COSMOS 2406 4.4 22:09:52 10° NW 22:15:07 38° WSW 22:20:20 10° S
Cosmos 1908 Rocket 3.8 22:11:17 10° SSW 22:15:38 70° W 22:20:05 10° N
USA 245 2.8 22:19:18 34° S 22:20:31 81° WSW 22:24:14 10° NNW
SL-08 RB Rocket 3.7 22:18:58 27° SSE 22:21:24 69° ENE 22:26:02 10° N
Cosmos 1378 Rocket 3.8 22:17:08 10° NNW 22:21:25 67° W 22:24:19 20° S
Cosmos 676 Rocket 4.2 22:16:47 10° NNW 22:21:58 70° WSW 22:25:21 22° S
ARGOS 3.1 22:19:51 23° SSE 22:23:20 85° ENE 22:28:43 10° NNW
NOSS 5 (C) 4.1 22:20:22 10° SSW 22:23:46 79° SE 22:26:52 10° NE
ATLAS 5 CENTAUR R/B 3.6 22:18:34 10° NW 22:24:03 36° WSW 22:28:52 14° S
Cosmos 1184 Rocket 2.7 22:24:38 30° S 22:26:08 89° W 22:29:30 10° N
Cosmos 1295 Rocket 4.5 22:21:05 16° S 22:26:08 70° E 22:32:25 10° NNE
CZ-4 R/B 3.7 22:22:58 10° NNE 22:27:39 64° ESE 22:30:17 25° S
CZ-3C R/B 4.3 22:20:09 10° SW 22:27:48 14° SSW 22:30:49 12° S
Cosmos 1174 3.5 22:25:44 10° NW 22:28:57 54° WSW 22:29:36 42° SSW
Cosmos 1954 Rocket 4.0 22:23:45 10° NNW 22:28:58 78° WSW 22:31:54 26° S
Cosmos 1862 4.2 22:28:46 10° SSW 22:32:42 50° WNW 22:36:42 10° N
Cosmos 2151 Rocket 4.2 22:32:07 33° ESE 22:33:09 38° E 22:37:22 10° NNE
Cosmos 489 Rocket 4.4 22:27:53 10° NNW 22:34:09 87° ENE 22:37:38 28° SSE
Cosmos 2278 Rocket 2.1 22:28:43 10° SSW 22:34:24 82° ESE 22:40:06 10° NNE
CENTAUR R/B 4.5 22:30:42 10° NW 22:37:20 30° WSW 22:44:14 10° SSW
Cosmos 1844 4.1 22:31:46 10° SW 22:37:29 66° WNW 22:43:17 10° NNE
Cosmos 1741 Rocket 4.1 22:32:27 10° NNW 22:37:40 62° ENE 22:39:49 34° SE
Cosmos 1833 Rocket 3.6 22:33:13 10° N 22:38:23 36° ENE 22:40:56 24° ESE
Cosmos 2366 rocket 4.2 22:36:39 28° SSE 22:39:49 54° E 22:45:57 10° NNE
Cosmos 1825 3.2 22:37:57 14° SSW 22:41:03 44° WNW 22:44:44 10° N
Cosmos 2084 3.0 22:38:02 10° SW 22:41:54 86° ESE 22:45:45 10° NE
COSMOS 2487 2.9 22:40:19 10° NNW 22:43:53 57° WSW 22:44:48 42° SSW
Cosmos 1844 Rocket 3.9 22:40:13 10° SW 22:45:34 43° WNW 22:50:57 10° NNE
USA 229 DEB 4.2 22:41:16 10° NNW 22:48:12 53° NE 22:52:17 25° ESE
USA 229 4.3 22:41:22 10° NNW 22:48:18 52° NE 22:52:24 25° ESE
APEX 3.4 22:50:10 52° SSE 22:50:49 60° ESE 22:55:38 10° NNE
Cosmos 1812 3.8 22:49:08 10° NNE 22:52:37 31° ENE 22:52:41 31° ENE
CZ-4C R/B 3.2 22:51:49 53° S 22:52:40 83° WSW 22:56:42 10° NNW
Cosmos 2082 Rocket 2.5 22:47:37 10° NNW 22:53:15 58° ENE 22:55:25 36° ESE
Cosmos 1408 4.4 22:52:38 11° SW 22:55:38 28° WNW 22:58:51 10° NNW
Cosmos 2218 Rocket 4.0 22:59:14 26° S 23:03:04 88° W 23:09:32 10° N
Okean 1 Rocket 4.2 23:05:04 30° E 23:05:04 30° E 23:08:45 10° NNE
Okean 2 Rocket 4.2 23:02:50 17° SW 23:05:51 41° WNW 23:10:03 10° N
Cosmos 2297 3.6 23:02:58 30° SSW 23:05:51 75° ESE 23:11:36 10° NNE
Landsat 7 4.1 23:05:01 37° SSW 23:06:42 60° W 23:11:25 10° NNW
H-2A R/B 2.2 23:05:40 38° S 23:07:47 75° WSW 23:13:09 10° NNW
Cosmos 1300 Rocket 4.3 23:08:01 37° E 23:08:01 37° E 23:11:58 10° NNE
Cosmos 1242 Rocket 3.8 23:06:35 10° NNW 23:09:54 33° W 23:10:42 30° WSW
Cosmos 1420 Rocket 4.4 23:08:59 16° SW 23:13:07 61° WNW 23:18:19 10° NNE
Cosmos 1727 Rocket 3.9 23:13:14 10° N 23:19:26 84° W 23:21:45 41° S
Spot 4 3.8 23:21:25 56° S 23:22:27 80° WSW 23:27:21 10° NNW
Terra 2.1 23:21:17 46° SSW 23:22:27 60° W 23:27:11 10° NNW
ASTEX 1 3.3 23:20:06 10° N 23:25:03 72° E 23:25:46 61° SSE
IGS 5A 3.8 23:25:17 52° SW 23:25:45 55° W 23:29:52 10° NNW
Okean 1 3.3 23:30:48 10° N 23:34:40 79° NNE 23:34:40 79° NNE
SAR-Lupe-2 4.3 23:36:53 48° WNW 23:36:53 48° WNW 23:39:58 10° NNW
BREEZE-M DEB (TANK) 3.9 23:42:50 10° NW 23:45:13 32° NNE 23:50:32 10° E
Cosmos 2369 Rocket 3.8 23:46:17 20° E 23:46:17 20° E 23:49:24 10° NE
Meteor 1-20 Rocket 4.3 23:43:42 46° SSW 23:45:22 73° W 23:50:56 10° N
USA 234 3.5 23:42:13 10° NE 23:48:43 69° NW 23:55:11 10° WSW
Cosmos 1302 Rocket 4.3 23:55:00 51° E 23:55:00 51° E 23:59:48 10° NNE
